Home   Weather   Columbia   Past weeks

Flag for USA Past Weather in Columbia, South Carolina, USA — Yesterday and Last 2 Weeks

Now
74 °F

Sunny.


Feels Like: 73 °F
Forecast: 70 / 87 °F
Wind: No wind

Location: Columbia Owens Downtown Airport

Current Time: Sep 27, 2016 at 9:51:55 AM

Latest Report: Sep 27, 2016 at 8:53 AM


Visibility: 7 mi

Pressure: 29.98 "Hg

Humidity: 88%

Dew Point: 70 °F

Location of ColumbiaLocation

Past Weather in Columbia — Graph

°F

Columbia Temperature Yesterday

Maximum temperature yesterday: 86 °F (at 1:53 PM)
Minimum temperature yesterday: 74 °F (at 3:53 AM)
Average temperature yesterday: 78 °F

High & Low Weather Summary for the Past Weeks

 TemperatureHumidityPressure
High93 °F (Sep 18, 3:53 PM)94% (Sep 12, 9:53 PM)30.21 "Hg (Sep 12, 9:53 PM)
Low69 °F (Sep 19, 10:00 PM)41% (Sep 24, 4:53 PM)29.88 "Hg (Sep 19, 3:53 PM)
Average77 °F77%30.06 "Hg
* Reported Sep 12 7:53 AM — Sep 27 7:53 AM, Columbia, Weather by CustomWeather, © 2016

Note: Actual official high and low records may vary slightly from our data, if they occured in-between our weather recording intervals... More about our weather records

Advertising

Columbia Weather History for the Previous 24 Hours

Scroll right to see more
 ConditionsComfort  
Time TempWeatherWind HumidityBarometerVisibility
7:53 AM
Tue, Sep 27
71 °FFog.No wind90%29.98 "Hg4 mi
6:53 AM70 °FFog.No wind93%29.97 "Hg4 mi
5:53 AM71 °FFog.No wind93%29.96 "Hg5 mi
4:53 AM72 °FFog.No wind91%29.96 "Hg6 mi
3:53 AM73 °FFog.No wind90%29.98 "Hg6 mi
2:53 AM73 °FPassing clouds.No wind90%30.00 "Hg7 mi
2:04 AM73 °FPassing clouds.No wind90%30.02 "Hg7 mi
12:53 AM73 °FPassing clouds.No wind90%30.02 "Hg7 mi
11:53 PM
Mon, Sep 26
74 °FClear.No wind88%30.03 "Hg8 mi
10:53 PM75 °FClear.No wind85%30.03 "Hg10 mi
9:53 PM76 °FPassing clouds.No wind85%30.05 "Hg10 mi
8:53 PM77 °FClear.3 mph82%30.04 "Hg10 mi
7:53 PM79 °FClear.5 mph77%30.03 "Hg10 mi
6:53 PM81 °FSunny.5 mph69%30.01 "Hg10 mi
5:53 PM84 °FSunny.3 mph61%29.99 "Hg10 mi
4:53 PM86 °FPassing clouds.7 mph57%29.99 "Hg10 mi
3:53 PM86 °FSunny.3 mph55%30.01 "Hg10 mi
2:53 PM86 °FPassing clouds.No wind55%30.03 "Hg10 mi
1:53 PM86 °FPartly sunny.6 mph57%30.06 "Hg10 mi
12:53 PM81 °FPassing clouds.5 mph67%30.09 "Hg10 mi
11:53 AM80 °FPartly sunny.No wind71%30.11 "Hg10 mi
10:53 AM78 °FOvercast.3 mph76%30.12 "Hg10 mi
9:53 AM76 °FOvercast.No wind82%30.11 "Hg10 mi
Weather by CustomWeather, © 2016

See weather overviewHow to use our weather pages